Location: Unspecified
(45.3712°N, 0.6436°E)
Time: 03:17:26
(UTC+01:00)

ISS - Visible Passes

Search period start: 19 February 2018 00:00
Search period end: 01 March 2018 00:00
Orbit: 403 x 407 km, 51.6° (Epoch: 19 February)

Date Brightness Start Highest point End Pass type
(mag) Time Alt. Az. Time Alt. Az. Time Alt. Az.
26 Feb -0.7 06:23:47 10° SSE 06:24:57 11° SE 06:26:07 10° ESE visible
27 Feb -2.6 07:05:33 10° SW 07:08:41 43° SE 07:11:50 10° ENE visible
28 Feb -1.7 06:13:47 10° SSW 06:16:30 24° SE 06:19:15 10° E visible
